Location: Leeds
(37.2390°N, 113.3580°W)
Time: 05:10:13
(UTC-06:00)

ISS - All Passes

Search period start: 25 October 2014 00:00
Search period end: 03 November 2014 23:00
Orbit: 412 x 416 km, 51.6° (Epoch: 25 October)

Date Brightness Start Highest point End Pass type
(mag) Time Alt. Az. Time Alt. Az. Time Alt. Az.
25 Oct - 11:53:47 10° SSE 11:55:20 13° SE 11:56:53 10° E daylight
25 Oct - 13:28:23 10° WSW 13:31:39 56° NW 13:34:57 10° NE daylight
25 Oct - 15:07:36 10° NW 15:08:56 12° NNW 15:10:17 10° N daylight
25 Oct - 18:23:13 10° N 18:24:56 13° NNE 18:26:38 10° NE daylight
25 Oct - 19:58:47 10° NW 20:02:07 71° NE 20:05:26 10° SE visible
26 Oct - 12:39:08 10° SW 12:42:26 76° SE 12:45:46 10° NE daylight
26 Oct - 14:17:18 10° WNW 14:19:28 16° NNW 14:21:39 10° NNE daylight
26 Oct - 17:35:09 10° NNE 17:35:25 10° NNE 17:35:40 10° NNE daylight
26 Oct - 19:09:41 10° NW 19:12:51 39° NE 19:16:00 10° ESE visible
26 Oct - 20:46:54 10° W 20:49:20 19° SW 20:51:45 10° S visible
27 Oct - 11:50:09 10° SSW 11:53:15 38° SE 11:56:22 10° ENE daylight
27 Oct - 13:27:17 10° W 13:30:01 23° NNW 13:32:46 10° NNE daylight
27 Oct - 18:20:40 10° NNW 18:23:28 24° NNE 18:26:15 10° E daylight
27 Oct - 19:57:07 10° WNW 20:00:12 35° SW 20:03:16 10° SSE visible
28 Oct - 11:01:36 10° S 11:04:06 20° SE 11:06:37 10° E daylight
28 Oct - 12:37:29 10° WSW 12:40:36 36° NW 12:43:43 10° NE daylight
28 Oct - 17:31:44 10° NNW 17:33:59 17° NNE 17:36:13 10° ENE daylight
28 Oct - 19:07:39 10° NW 19:10:58 71° SW 19:14:16 10° SE visible
29 Oct - 10:14:11 10° SE 10:14:58 11° SE 10:15:45 10° ESE daylight
29 Oct - 11:47:55 10° WSW 11:51:13 66° NW 11:54:32 10° NE daylight
29 Oct - 13:26:50 10° NW 13:28:25 13° NNW 13:30:01 10° N daylight
29 Oct - 16:42:56 10° N 16:44:23 12° NNE 16:45:49 10° NE daylight
29 Oct - 18:18:20 10° NW 18:21:38 60° NE 18:24:55 10° ESE daylight
29 Oct - 19:56:36 10° WSW 19:57:55 12° SW 19:59:14 10° SSW visible
30 Oct - 10:58:35 10° SW 11:01:51 63° SE 11:05:09 10° NE daylight
30 Oct - 12:36:28 10° WNW 12:38:48 18° NNW 12:41:09 10° NNE daylight
30 Oct - 17:29:06 10° NNW 17:32:11 33° NNE 17:35:15 10° E daylight
30 Oct - 19:06:04 10° WNW 19:08:43 22° SW 19:11:22 10° S visible
31 Oct - 10:09:33 10° SSW 10:12:32 31° SE 10:15:32 10° ENE daylight
31 Oct - 11:46:22 10° W 11:49:13 26° NNW 11:52:04 10° NNE daylight
31 Oct - 16:39:58 10° NNW 16:42:37 22° NNE 16:45:16 10° E daylight
31 Oct - 18:16:15 10° WNW 18:19:25 42° SW 18:22:34 10° SSE daylight
01 Nov - 09:21:01 10° S 09:23:14 17° SE 09:25:28 10° E daylight
01 Nov - 10:56:29 10° WSW 10:59:39 42° NW 11:02:51 10° NE daylight
01 Nov - 12:36:21 10° NNW 12:37:02 10° NNW 12:37:43 10° N daylight
01 Nov - 15:50:55 10° NNW 15:52:57 15° NNE 15:55:00 10° ENE daylight
01 Nov - 17:26:41 10° NW 17:30:00 86° SW 17:33:20 10° SE daylight
02 Nov - 09:06:49 10° SW 09:10:08 80° NW 09:13:27 10° NE daylight
02 Nov - 10:45:25 10° NW 10:47:15 14° NNW 10:49:05 10° N daylight
02 Nov - 14:02:05 10° N 14:03:11 11° NNE 14:04:17 10° NE daylight
02 Nov - 15:37:15 10° NW 15:40:30 50° NE 15:43:44 10° ESE daylight
02 Nov - 17:14:58 10° W 17:16:50 14° SW 17:18:42 10° SSW daylight
03 Nov - 08:17:25 10° SSW 08:20:38 51° SE 08:23:52 10° ENE daylight
03 Nov - 09:55:00 10° WNW 09:57:30 19° NNW 10:00:00 10° NNE daylight
03 Nov - 14:47:54 10° NNW 14:50:52 29° NNE 14:53:49 10° E daylight
03 Nov - 16:24:37 10° WNW 16:27:28 26° SW 16:30:18 10° S daylight
